Regional Weather Roundup
Issued by NWS

Home | Current Version | Previous Version | Text Only | Print | Product List | Glossary On
Versions: 1 2 3 4 5 6 7 8 9 10 11 12 13 14 15 16 17 18 19 20 21 22 23 24 25 26 27 28 29 30 31 32 33 34 35 36 37 38 39 40 41 42 43 44 45 46 47 48 49
000
ASUS42 KFFC 271903
RWRGA
WEATHER ROUNDUP FOR GEORGIA
NATIONAL WEATHER SERVICE PEACHTREE CITY GA
200 PM EST TUE JAN 27 2015

NOTE: "FAIR" INDICATES FEW OR NO CLOUDS BELOW 12,000 FEET WITH NO
SIGNIFICANT WEATHER AND/OR OBSTRUCTIONS TO VISIBILITY.

* = USE WITH CAUTION. THE STATIONS MARKED WITH AN ASTERISK MAY NOT
REPORT WEATHER SUCH AS PRECIPITATION, FOG, OR THUNDER AND ARE NOT
QUALITY CONTROLLED BY NWS.

THE REMARK "TC" DENOTES TEMPERATURE READING IN DEGREES CELSIUS.

GAZ001>058-272000-
NORTH GEORGIA

CITY           SKY/WX    TMP DP  RH WIND       PRES   REMARKS
ATLANTA        PTSUNNY   47  30  51 NW20G25   29.96R
ATHENS         MOSUNNY   50  25  37 N14G23    29.89S
CHAMBLEE       CLOUDY    44  29  55 NW16G24   29.95S
PEACHTREE CITY PTSUNNY   48  30  49 NW14G21   29.96S
ROME           PTSUNNY   48  31  51 N13G21    29.99S
WEST ATLANTA   CLOUDY    47  29  49 NW8       29.96F
GAINESVILLE    MOSUNNY   45  26  47 NW17G24   29.92R
CARTERSVILLE   CLOUDY    45  29  53 N9G22     29.99R


CITY           SKY/WX    TMP DP  RH WIND       PRES   REMARKS
DALTON*        CLOUDY    41  32  70 NW14      30.00S
LAWRENCEVILLE* MOSUNNY   48  25  40 NW9       29.92S
MARIETTA       PTSUNNY   46  30  53 N10G22    29.96R
KENNESAW*      PTSUNNY  N/A N/A N/A N16G26    29.98R
$$

GAZ059>098-102>109-272000-
CENTRAL GEORGIA

CITY           SKY/WX    TMP DP  RH WIND       PRES   REMARKS
AUGUSTA-BUSH   PTSUNNY   49  29  46 N14G23    29.89S
AUGUSTA-DANIEL PTSUNNY   49  28  44 N13G21    29.89S
COLUMBUS       SUNNY     56  26  31 N20G28    29.96F
MACON          PTSUNNY   55  30  38 NW20G26   29.93F
ROBINS AFB     PTSUNNY   55  29  37 N21       29.93F


CITY           SKY/WX    TMP DP  RH WIND       PRES   REMARKS
LAGRANGE*      PTSUNNY   56  33  41 N12G28    29.96F
SYLVANIA*      PTSUNNY   49  35  59 N6        29.88R
MILLEDGEVILLE* PTSUNNY   52  34  50 NW13G18   29.92R
$$

GAZ099>101-110>166-272000-
SOUTH GEORGIA

CITY           SKY/WX    TMP DP  RH WIND       PRES   REMARKS
SAVANNAH       PTSUNNY   53  28  38 NW15G24   29.86F
VALDOSTA       MOSUNNY   61  37  41 VRB7      29.92F
ALMA           CLOUDY    55  35  47 NW10G21   29.90F
ST SIMONS      CLOUDY    56  35  45 W13G20    29.88F
FT STEWART     MOSUNNY   54  32  43 NW16G26   29.86F
ALBANY         MOSUNNY   60  34  37 NW14G21   29.96F
HUNTER AFB     PTSUNNY   53  32  43 W10G21    29.84F
MOODY AFB      SUNNY     59  37  45 NW10      29.91F
BRUNSWICK      MOSUNNY   57  34  41 W12G22    29.89F


CITY           SKY/WX    TMP DP  RH WIND       PRES   REMARKS
BAINBRIDGE*    SUNNY     63  39  42 NW15G22   29.96F
MOULTRIE*      SUNNY     57  37  47 W14       29.94F
VIDALIA*       CLOUDY    54  32  43 NW18G25   29.89S
WAYCROSS*      PTSUNNY   60  40  47 NW12G22   29.89F
DOUGLAS*       PTSUNNY   59  34  38 NW15G21   29.92F
$$



USA.gov is the U.S. government's official web portal to all federal, state and local government web resources and services.